Location: Newark
(35.2672°N, 80.7344°W)
Time: 03:27:36
(UTC+00:00)

Tiros 1 - Pass Details

Date: 20 January 2020
Orbit: 631 x 664 km, 48.4° (Epoch: 18 February)

Event Time Altitude Azimuth Distance (km) Brightness Sun altitude
Rises 23:50:27 0° 309° (NW) 2,979 11.1 -14.7°
Reaches altitude 10° 23:53:18 10° 326° (NW) 2,072 10.0 -15.2°
Maximum altitude 23:56:56 21° 15° (NNE) 1,476 8.7 -16.0°
Enters shadow 23:58:05 19° 35° (NE) 1,547 8.7 -16.2°
Drops below altitude 10° 00:00:35 10° 65° (ENE) 2,078 - -16.7°
Sets 00:03:27 0° 81° (E) 2,991 - -17.2°
